Погода в Тобольске

Хотите узнать прогноз погоды в Тобольске? Тогда Вам сюда: Погода в Тобольске

Поиск расширенной информации на нашем сайте:

Полезная информация:

Новости сайта



02.01.2020
Опубликован Долгосрочный прогноз погоды по городам России и ближнего зарубежья на январь 2020 года.
Карты: Прогноз на январь и февраль 2020 года, Сравнение прогнозируемой аномалии приземной температуры воздуха на январь 2020 года по разным моделям.




Погода в Тобольске - сегодня

Время (UTC), дата Ветер
(°,м/с) 
Видим.   Явления Облачность Т
(°С)
Тd
(°С)
f(%) Тe
(°С)
Pmin
(гПа)
dP
(гПа)
Po
(мм)
O2
(г/м3)
Тmin Tmax R s Состояние
почвы
15 15.04.21 250 (З) 2{13}  10 км    3/0 верхняя 
[Ci sp]
+17.9 +1.6 33 +19  1013.4  -1.7  756  286    +23.1       
18 15.04.21 230 (ЮЗ) 10 км    ясно 
+13.3 +2.3 47 +14  1011.7  -1.7  754  290           
21 15.04.21 340 (С) 5{11}  10 км    ясно 
+5.8 -1.5 59 +4  1015.5  3.5  757  299           
03 16.04.21 340 (С) 20000 м  {ливн. осадки}  4/0 средняя, верхняя 
[Ac lent|Ci sp]
+4.1 -1.9 65 +3  1021.1  2.9  761  302  +2.3    0.0    мокрая 
09 16.04.21 350 (С) 5{12}  20000 м    6/6 600 м 
[Cu med, cong]
+7.3 -9.2 30 +6  1024.6  1.9  764  301           
18 16.04.21 360 (С) 10 км    ясно 
-3.1 -9 64 -3  1028.7  1.3  767  313           
21 16.04.21 тихо ()   10 км    ясно 
-6.5 -9 82 -7  1028.1  -0.6  766  317           
00 17.04.21 120 (ЮВ) 10 км    ясно 
-8 -9.6 88 -8  1027.4  -0.7  766  319           
03 17.04.21 220 (ЮЗ) 20000 м    10/0 верхняя 
[Ci fib]
-0.8 -8.1 58 -3  1026  -1.2  765  310  -8.1        замёрзшая 
06 17.04.21 230 (ЮЗ) 20000 м    9/0 верхняя 
[Cc]
+6.5 -9.4 31 +5  1022.5  -3.3  762  301           
09 17.04.21 260 (З) 4{10}  20000 м    10/4 600 м средняя, верхняя 
[Cu hum|Ac lent|Cs]
+10.1 -10.9 22 +9  1018.9  -3.6  760  296           
12 17.04.21 300 (СЗ) 3{11}  20000 м    10/3 600 м средняя 
[Sc|As op]
+9.9 -10.1 23 +9  1016.7  -2.2  758  296           
15 17.04.21 320 (СЗ) 3{10}  10 км    10/0 средняя, верхняя 
[Ac trans|Cc]
+7.2 -7.3 35 +6  1016.3  -0.5  758  298    +10.9       
18 17.04.21 280 (З) 10 км    10/0 средняя 
[Ac As]
+2.1 -5.8 56 +3  1014.8  -1.6  756  303           
21 17.04.21 190 (Ю) 10 км    10/0 верхняя 
[Cs]
-0.5 -6.2 65 1011.8  -3  754  305           
00 18.04.21 250 (З) 10 км    10/0 средняя 
[Ac As]
+3.9 -5.8 49 +3  1008.4  -3.3  752  299           
03 18.04.21 310 (СЗ) 3{11}  10 км  слаб. дождь со снегом  10/0 средняя 
[As op]
+1.2 -1 85 1007.6  -0.8  751  301  -0.8    0.0    влажная 
18 18.04.21 360 (С) 2{10}  10 км    ясно 
-7.3 -18.4 41 -9  1029.6  1.6  768  319           
21 18.04.21 260 (З) 10 км    ясно 
-9.8 -15.4 64 -10  1030.2  0.3  768  322           
00 19.04.21 300 (СЗ) 10 км    3/3 600 м 
[Sc]
-10 -14.1 72 -12  1030.6  0.3  768  323           
03 19.04.21 320 (СЗ) 20000 м    9/9 600 м 
[Sc]
-5.7 -15.2 47 -8  1031.2  0.8  769  318  -10.3        замёрзшая 
06 19.04.21 330 (СЗ) 5{10}  20000 м    6/6 600 м 
[Sc]
-3.5 -17 34 -7  1031.3  0.2  769  315           
09 19.04.21 350 (С) 4{11}  20000 м    3/3 600 м 
[Sc]
-3 -16.8 34 -6  1032.2  0.8  769  315           
12 19.04.21 350 (С) 5{10}  20000 м    3/3 600 м 
[Sc]
-3.7 -16.3 37 -7  1032.7  0.5  770  316           
15 19.04.21 360 (С) 10 км    ясно 
-5.3 -15.6 44 -7  1033.3  0.5  770  318           
Время (UTC), дата Ветер
(°,м/с) 
Видим.   Явления Облачность Т
(°С)
Тd
(°С)
f(%) Тe
(°С)
Pmin
(гПа)
dP
(гПа)
Po
(мм)
O2
(г/м3)
Тmin Tmax R s Состояние
почвы

Для получения пояснительной информации подведите курсор к названию столбца.

ПОГОДА в Тобольске - архив

Всё, что Вы хотите узнать о погоде в Тобольске - удобно и подробно!

Выберите нужную дату (начиная с 1 января 2019* года) и нажмите кнопку "Найти".
Будут отображены архивные сводки погоды по пункту Тобольск, начиная с указанной даты.


Отображать данные в формате CSV (для использования в таблицах Excel)


Внимание! Наш архив погоды предназначен исключительно для личного некоммерческого использования в познавательных целях. Если Вам необходимы официальные справки о состоянии погоды (для производственных, юридических, коммерческих и т.п. целей), обращайтесь в органы Росгидромета.

*Примечание: данная дата относится к архиву по метеостанциям СССР (Россия, СНГ, Балтия).
Архив по метеостанциям Зарубежной Европы и Азии (кроме Китая) хранится 10 дней, по другим регионам земного шара (Китай, Африка, Америка, Австралия, Океания) - 1 день.

Тобольск - район местоположения метеостанции


Название, широта, долгота, высота метеостанции:
Тобольск 58.2°ш. 68.2°д. 50 м над ур. моря [Российская Федерация]

Дополнительная информация

В oтличие oт бoльшинства пoгoдных сайтoв мы публикуем пoдрoбную метеoинфoрмацию в детальнoм прoфессиoнальнoм фoрмате.

Характеристики температуры и влажнoсти вoздуха измеряются на высoте 2 м в тени вдали oт зданий и деревьев.
Скoрoсть ветра измеряется на высoте 10 м (на урoвне рoста челoвека скoрoсть ветра ниже в 1.5-2 раза). Если метеoстанция нахoдится в гoрoде или в лесу, тo скoрoсть ветра занижена на 2-4 м/с пo сравнению с oткрытым местoм. Скoрoсть ветра над акватoриями крупных рек и oзёр, а также на вершинах хoлмoв на 2-5 м/с выше, чем в oбычных услoвиях.
Атмoсфернoе давление в разных тoчках местнoсти мoжет значительнo oтличаться oт давления на метеoстанции, в зависимoсти oт услoвий рельефа (при пoдъёме на 10 м давление пoнижается примернo на 1 мм рт.ст.).